Location: Unspecified
(49.2170°N, 0.0000°E)
Time: 13:51:23
(UTC+00:00)

Vanguard 3 - Pass Details

Date: 27 January 2021
Orbit: 508 x 3261 km, 33.3° (Epoch: 28 February)

Event Time Altitude Azimuth Distance (km) Brightness Sun altitude
Rises 06:59:12 0° 257° (WSW) 4,246 - -6.5°
Exits shadow 06:59:13 - 257° (WSW) 4,239 10.3 -6.5°
Reaches altitude 10° 07:02:14 10° 245° (WSW) 3,631 10.1 -6.1°
Maximum altitude 07:09:56 26° 193° (SSW) 3,347 10.4 -4.9°
Drops below altitude 10° 07:21:11 10° 146° (SE) 5,447 12.4 -3.2°
Sets 07:27:12 0° 136° (SE) 6,833 13.5 -2.3°
